Theta_e
319 320 324 325 323 317 319 320 317 317 318 318 319 319 318 318 317 317 318 316 314 320 323 318 316 322 327 330 332 334 334 336 336 335 336 334 331 331 329 328 327 323 325 321 318 317 316 319 324
319 322 325 326 320 318 316 316 316 316 318 319 319 318 317 314 317 315 315 314 314 322 325 323 321 321 323 333 333 334 334 334 334 335 336 335 334 331 329 328 326 324 321 319 317 315 315 318 334
319 322 324 320 315 316 317 315 315 317 318 318 317 316 313 312 314 314 316 314 315 317 323 326 320 319 323 331 334 334 333 331 330 331 332 333 335 334 330 329 327 325 321 317 315 313 314 316 332
320 323 322 317 318 317 315 315 317 317 318 318 317 311 312 312 312 313 315 315 315 315 317 322 320 315 314 316 323 330 332 328 326 327 330 332 332 332 331 330 329 325 320 317 317 322 311 313 327
320 320 317 318 317 316 314 317 317 316 316 317 316 311 311 310 311 312 313 313 314 316 317 315 314 312 313 314 317 322 331 329 328 327 327 329 330 331 331 331 330 327 320 325 327 332 329 311 321
319 319 317 317 317 315 314 317 317 314 314 315 314 312 308 308 310 309 310 310 310 310 312 314 316 316 315 313 316 321 323 326 328 328 327 327 328 329 329 329 330 329 328 326 329 327 328 324 314
319 315 318 318 317 316 316 317 316 314 313 313 314 310 307 307 307 308 307 307 306 307 308 308 309 310 312 316 318 317 322 326 327 326 326 326 327 327 327 328 329 329 328 329 328 326 326 327 318
319 314 319 317 317 317 316 316 316 314 312 314 314 309 306 305 305 306 306 306 305 304 304 305 305 306 307 308 310 314 320 325 325 326 326 325 324 324 323 326 330 330 328 326 326 326 325 324 326
319 317 318 316 317 316 316 315 314 313 311 310 308 307 304 305 305 306 305 304 304 304 304 304 304 303 303 304 304 305 309 317 323 325 327 325 325 324 327 325 328 331 328 326 326 326 325 325 326
317 316 317 315 314 314 314 314 314 313 309 306 305 304 304 304 303 302 302 301 301 302 302 302 303 303 304 304 303 303 302 302 306 317 324 326 325 327 327 328 327 330 329 328 327 326 325 325 327
316 316 316 315 315 315 314 313 314 310 308 308 304 303 303 302 301 300 299 299 297 298 299 298 298 299 299 299 299 301 302 301 302 302 310 320 325 326 327 327 328 327 330 329 328 327 325 325 325
315 316 316 315 314 314 313 313 310 310 307 306 305 303 302 301 300 299 298 297 296 297 297 296 296 296 295 295 296 297 297 298 299 302 301 305 317 322 324 326 327 328 329 329 327 327 326 325 325
315 316 315 315 314 313 313 312 309 305 306 306 304 303 302 301 300 299 298 296 296 295 295 294 294 294 294 295 295 295 295 295 296 296 299 298 303 313 320 322 325 327 329 329 328 327 326 324 325
316 315 314 314 313 313 312 311 310 305 305 304 303 302 301 300 300 299 296 295 295 294 294 293 293 293 294 294 295 295 295 295 294 295 296 296 297 304 316 319 321 324 327 328 327 327 326 324 325
314 313 312 313 312 312 312 311 309 305 305 304 302 301 301 300 299 296 295 295 294 293 293 293 293 294 294 294 294 294 295 295 295 295 295 295 295 296 302 316 319 321 324 326 327 327 326 324 325
313 312 313 313 312 312 310 309 305 305 304 302 301 300 300 298 296 295 295 295 294 292 292 293 293 293 293 293 293 293 293 294 294 294 294 294 294 294 295 299 314 319 321 324 326 327 326 325 325
313 313 312 313 312 311 310 310 306 305 303 301 299 299 298 296 295 295 295 294 293 292 292 292 293 293 293 292 292 292 292 293 293 292 292 294 296 294 294 296 301 315 319 321 324 326 327 324 326
310 309 310 310 311 309 309 309 305 305 302 300 299 298 297 295 295 295 294 294 292 291 292 292 292 292 292 291 291 291 292 293 293 292 292 293 294 295 295 295 296 300 310 316 322 325 324 324 325
310 310 309 309 310 309 308 309 304 303 300 298 298 297 296 295 294 294 294 293 291 291 291 291 292 292 290 290 289 291 292 291 291 291 292 293 294 295 293 296 295 296 297 307 312 322 322 324 325
311 311 309 309 309 309 308 307 307 301 299 298 297 297 295 294 294 294 293 292 291 290 291 291 292 291 291 289 289 288 287 288 287 288 291 292 292 293 294 294 296 296 296 299 303 309 322 324 324
310 309 308 309 307 306 305 305 303 300 299 298 298 297 294 294 294 293 292 291 290 290 290 291 291 291 290 289 288 288 287 287 286 287 289 290 291 292 293 294 295 296 296 298 300 304 308 321 323
308 307 307 306 306 305 305 305 301 298 298 297 297 295 294 294 293 293 292 291 290 289 290 290 290 289 289 288 287 286 284 283 282 282 284 287 290 291 292 294 295 295 296 297 300 303 303 309 322
308 305 305 305 304 304 304 303 303 299 298 297 294 294 294 293 293 292 291 291 290 289 289 289 289 288 287 286 286 285 283 282 281 281 281 283 287 290 291 292 293 295 296 296 297 300 302 305 320
305 306 305 304 302 303 304 304 302 298 299 297 293 293 293 293 292 292 291 290 289 289 289 289 288 287 286 285 285 283 282 281 279 279 279 280 282 287 290 293 295 296 296 295 297 299 301 303 313
306 304 306 305 304 307 301 301 304 300 298 297 292 293 293 292 292 291 290 289 289 289 288 288 287 287 286 284 282 282 281 280 278 278 278 279 280 283 289 291 294 296 296 296 294 297 300 303 302
305 303 305 306 306 307 301 303 302 296 295 294 293 293 292 292 292 291 290 289 288 288 288 288 287 286 285 283 281 282 281 279 278 278 278 277 278 280 285 289 290 295 296 296 294 296 300 301 302
304 303 302 303 289 295 299 299 297 295 294 293 292 292 292 292 291 291 290 289 288 288 287 287 286 286 285 282 281 282 280 279 277 276 277 277 278 279 281 284 287 292 296 296 294 294 298 301 303
300 300 301 301 306 298 300 301 303 295 294 292 291 292 292 292 291 291 289 288 288 288 287 286 285 285 283 281 280 281 280 278 276 275 275 276 277 278 279 282 287 290 294 295 295 294 297 300 301
295 298 298 299 302 304 300 304 297 296 295 292 291 292 292 291 291 290 289 288 288 288 286 286 285 283 282 280 279 280 279 277 275 274 274 275 275 277 279 281 283 289 293 294 295 295 295 299 301
297 298 299 302 303 298 300 302 297 296 295 292 292 292 291 291 291 289 288 288 288 286 286 285 284 283 282 279 278 279 278 276 274 274 273 273 273 275 277 279 281 286 291 293 295 295 295 297 302
Wind_Speed
3 3 5 2 4 5 2 1 3 6 3 6 4 4 5 11 3 4 14 24 21 13 14 13 12 11 9 9 9 10 11 11 12 12 12 12 13 14 13 13 14 15 17 17 16 15 15 14 16
4 3 2 1 4 4 3 3 6 5 5 4 6 9 7 6 17 10 17 20 17 12 14 15 14 11 9 8 10 11 12 13 15 15 14 16 16 16 16 15 15 16 17 17 17 17 17 17 17
4 3 1 3 3 4 4 1 4 5 9 5 3 14 10 17 17 9 18 11 12 11 11 13 13 14 13 11 10 11 13 15 17 18 18 19 18 18 19 18 17 16 18 18 16 17 18 19 18
7 2 2 4 5 5 7 2 5 4 7 5 4 10 14 23 10 12 9 11 10 8 6 10 13 13 13 13 15 14 15 17 19 21 22 22 22 21 21 21 20 18 17 17 17 15 18 20 20
7 2 4 1 3 5 4 9 6 4 6 6 11 7 10 22 11 11 14 13 13 12 11 9 9 7 8 12 15 16 17 18 20 22 24 25 25 26 25 24 23 20 18 19 17 19 18 21 23
4 1 3 2 3 5 4 10 9 8 15 7 13 10 9 14 16 17 14 14 13 14 14 13 13 14 12 8 10 15 18 20 21 24 24 26 27 27 27 27 25 24 22 21 21 21 21 20 25
2 3 3 1 5 4 2 5 5 6 5 9 5 6 11 16 13 12 13 13 15 17 18 19 19 16 16 16 16 14 15 18 21 24 26 27 28 29 29 30 29 27 26 25 23 22 23 24 24
3 4 4 2 2 2 1 6 9 11 7 8 5 5 5 12 8 8 11 15 18 20 21 23 23 23 23 21 18 19 17 17 20 23 24 28 31 31 33 31 31 30 29 28 26 25 25 25 26
1 4 2 3 4 3 4 3 16 16 22 22 13 14 11 3 7 9 14 16 17 21 23 24 26 27 28 27 26 25 22 20 21 21 23 25 30 34 34 32 32 32 31 30 29 28 26 27 29
4 3 0 1 2 3 3 5 7 6 17 18 23 15 5 5 11 15 18 21 23 24 26 27 26 27 27 29 30 30 29 27 23 24 27 26 27 29 31 32 32 33 33 32 32 31 30 28 30
2 2 1 4 8 5 2 6 2 18 4 5 18 17 11 9 13 16 19 22 24 24 27 30 31 32 35 35 35 32 31 31 31 26 23 32 32 31 31 34 34 35 36 36 34 34 34 32 32
1 3 2 2 6 3 1 4 6 2 11 15 15 13 11 10 13 16 18 22 25 27 28 33 38 40 41 40 40 40 40 37 32 31 29 26 32 37 36 34 35 37 37 38 36 35 34 35 34
3 3 2 2 4 3 1 8 10 19 19 15 14 10 9 9 11 15 17 22 25 28 28 32 37 42 44 44 43 43 42 41 39 31 30 31 29 32 36 41 39 37 39 41 40 38 36 36 36
1 2 6 1 5 4 4 10 9 16 18 15 11 12 10 10 10 13 19 23 25 27 31 32 37 39 42 44 42 40 41 42 43 43 34 30 34 33 30 35 41 39 40 43 42 40 39 39 38
1 3 4 5 6 4 3 3 6 26 19 19 17 15 12 11 10 14 15 17 20 28 34 38 41 41 41 41 43 43 37 38 42 44 43 39 34 37 35 35 36 43 41 42 43 42 42 41 38
0 3 2 4 9 5 3 6 5 29 27 21 18 14 11 8 8 10 11 14 22 33 33 38 40 41 41 42 43 44 43 41 42 43 41 44 39 39 39 37 39 30 41 42 47 48 45 45 43
3 3 3 1 10 3 3 5 13 28 26 22 18 14 10 6 6 9 11 17 26 35 35 37 39 40 42 44 45 44 41 41 47 51 46 39 44 40 42 38 39 39 30 42 46 56 53 51 47
4 4 4 5 4 6 7 7 6 27 25 23 18 14 10 7 7 8 11 16 27 33 33 35 38 39 41 46 47 44 42 42 47 54 47 42 45 40 42 42 42 41 43 23 48 52 60 56 52
4 5 6 7 6 8 8 7 11 20 21 21 20 16 11 7 4 7 10 18 31 34 33 35 38 41 45 48 48 46 45 51 57 50 42 41 42 40 44 44 42 44 41 51 25 41 57 59 55
6 7 8 8 3 1 6 10 6 20 19 25 22 15 12 7 4 5 11 21 30 34 33 37 39 43 47 50 44 44 49 53 51 50 41 42 43 42 39 42 44 47 42 47 58 34 43 57 64
5 6 5 7 5 6 7 8 6 6 13 22 18 15 10 5 2 5 13 24 28 32 33 38 40 44 47 47 51 54 54 54 52 42 35 35 38 36 42 42 42 45 41 39 51 57 29 37 55
6 2 2 5 4 4 2 8 4 9 10 12 21 17 11 6 1 5 14 23 26 30 35 39 43 45 47 49 53 53 55 56 52 49 50 51 39 39 37 38 40 43 44 33 38 50 55 32 53
5 2 5 5 9 2 6 5 5 13 12 12 14 14 10 5 1 7 17 23 28 31 36 42 43 45 48 51 54 54 55 52 52 50 49 45 44 35 34 39 40 41 45 43 31 46 55 46 48
2 3 5 4 2 4 9 11 4 7 15 14 14 15 11 4 2 10 20 22 28 32 41 44 43 49 51 54 56 51 50 51 49 50 44 43 38 42 31 30 37 38 43 41 30 35 47 46 32
2 3 4 5 2 7 2 2 14 6 8 18 15 18 11 4 4 13 20 26 36 37 41 44 46 51 53 55 56 51 52 46 46 45 40 39 42 42 39 26 27 37 40 40 36 32 41 48 35
6 6 4 7 4 6 6 7 5 2 17 25 20 17 11 3 4 14 26 35 33 34 44 45 48 52 54 56 57 57 54 45 51 40 45 46 42 40 43 39 30 30 39 39 40 31 30 52 55
3 4 1 2 2 2 4 5 3 3 8 13 18 15 9 4 9 21 27 30 31 34 46 45 47 51 54 57 59 61 56 54 47 42 47 38 35 40 39 39 38 27 37 38 39 31 28 36 41
2 3 2 1 4 7 6 7 8 12 14 8 9 11 5 4 12 16 22 28 30 37 44 44 46 51 54 56 59 60 62 55 46 51 39 40 42 34 34 35 37 30 26 36 39 36 28 25 45
2 3 4 2 4 5 2 7 4 18 16 12 10 12 7 5 7 17 25 29 31 39 43 45 48 51 54 56 58 59 60 54 49 47 45 44 34 34 35 37 35 33 26 31 35 33 31 21 29
3 9 10 5 6 4 7 18 7 13 13 17 16 14 8 5 10 19 25 29 34 43 44 46 48 52 54 55 57 57 58 55 48 46 47 43 37 33 34 35 36 37 31 23 35 30 32 27 29
Wind_Direction
36 121 113 79 63 61 51 80 83 45 52 49 55 65 77 40 65 86 17 6 360 356 341 334 345 350 339 321 293 282 288 288 285 283 279 278 284 280 286 293 287 268 263 263 260 251 242 235 229
47 64 51 351 84 84 307 65 73 121 111 52 105 69 86 46 66 62 12 356 357 4 347 341 331 333 329 318 306 296 289 283 282 278 276 282 285 290 291 292 296 286 267 261 260 255 244 232 228
56 35 7 105 129 131 130 333 61 128 112 86 87 64 32 329 22 28 23 347 347 9 353 344 338 325 314 300 288 289 289 288 286 279 275 279 281 285 288 289 292 288 276 268 260 255 247 234 228
28 13 264 84 125 26 129 131 68 127 91 76 100 67 71 48 48 33 2 2 353 351 336 324 324 323 311 296 289 284 283 282 286 282 279 277 278 280 283 286 287 286 276 266 265 265 253 238 228
16 355 35 27 63 109 94 81 54 9 119 125 97 87 88 41 32 23 12 4 8 5 2 345 322 313 318 309 302 287 284 282 283 282 280 278 278 278 278 279 280 278 271 267 258 255 259 249 230
12 12 48 79 115 134 62 63 82 67 56 59 91 98 55 40 19 27 27 29 19 19 11 355 346 342 324 294 293 302 294 281 281 282 281 281 278 276 276 276 274 272 268 262 259 253 254 249 235
77 73 225 143 163 66 129 91 81 86 74 21 52 90 74 37 23 17 27 32 37 39 33 29 23 3 341 332 325 294 289 299 284 276 280 281 280 279 275 275 272 269 265 260 259 256 251 247 241
23 96 309 37 111 104 88 88 99 89 40 60 88 87 58 51 1 8 29 34 36 35 33 30 26 21 22 11 346 323 300 293 294 285 284 279 278 277 275 272 269 269 265 261 257 253 250 249 245
59 67 326 9 70 122 61 108 76 93 92 75 86 98 101 40 340 2 21 25 26 28 26 23 21 18 17 14 9 5 349 304 290 287 285 286 288 272 271 266 267 267 265 261 257 254 252 249 245
65 92 321 31 66 129 92 123 123 103 100 98 95 97 91 31 28 31 29 29 24 21 20 16 11 7 2 360 358 356 353 349 341 290 288 288 285 282 280 274 264 264 265 262 258 256 252 248 246
3 202 36 68 95 74 66 65 102 124 58 135 127 110 86 56 44 42 35 32 27 20 11 8 3 358 353 350 346 341 339 337 337 333 311 284 286 283 283 275 271 261 261 260 258 254 250 245 240
12 273 60 37 47 85 56 90 87 121 127 135 127 118 103 66 50 45 35 24 20 16 10 2 358 355 354 350 347 341 336 331 325 319 318 317 284 281 283 284 275 266 261 259 257 253 248 245 239
175 240 270 334 59 100 19 153 132 123 143 144 125 111 88 60 43 31 23 17 15 13 7 1 357 353 349 345 343 340 337 333 327 323 309 310 306 289 282 281 279 271 259 253 255 252 245 242 239
294 287 281 261 164 184 147 134 111 167 148 128 118 101 85 64 40 19 14 10 8 3 1 358 355 352 345 341 341 340 338 335 328 322 318 304 302 300 289 283 276 272 266 255 254 249 245 240 235
158 344 16 201 198 226 206 256 185 161 153 135 128 121 106 83 43 30 16 7 1 1 355 355 350 345 342 340 337 334 331 329 324 321 317 312 301 298 295 282 275 273 271 262 252 246 239 239 231
149 135 156 244 168 236 140 274 148 159 152 146 141 135 125 89 49 23 8 352 359 357 356 351 348 344 342 339 335 329 323 320 322 315 311 309 306 297 299 289 276 282 271 263 253 244 235 229 223
356 267 258 294 207 160 164 249 172 172 161 152 147 141 136 100 58 13 357 353 357 356 356 350 347 346 342 340 338 331 322 315 317 319 307 303 303 300 301 298 284 272 276 260 254 241 233 223 218
274 299 295 266 230 202 202 241 177 178 165 159 151 145 137 111 59 2 345 345 348 357 356 349 348 346 345 343 340 336 329 315 310 310 308 303 300 304 299 297 293 286 272 276 249 236 232 225 214
262 260 251 262 247 202 227 238 190 181 169 164 163 155 146 109 58 357 332 340 348 355 354 351 348 349 349 343 342 336 325 313 307 311 308 301 300 296 299 299 297 299 292 267 301 240 239 221 214
232 261 271 286 167 313 259 249 238 184 182 171 165 163 151 124 48 355 331 342 349 352 351 350 348 349 347 345 334 323 319 319 313 307 294 294 296 297 293 296 298 298 305 276 266 295 240 214 206
246 228 253 256 332 297 281 274 189 191 171 176 170 167 138 120 26 337 336 344 345 349 347 348 348 346 343 339 336 334 327 324 318 311 307 297 288 290 293 290 291 293 302 288 271 265 295 226 197
261 163 225 282 354 242 118 288 213 179 182 183 180 165 148 131 59 326 337 342 343 344 346 348 346 339 338 339 339 337 332 326 322 314 300 286 291 287 286 291 286 289 287 279 274 261 270 291 197
241 52 249 249 246 359 233 251 255 167 204 195 175 159 145 145 302 330 340 342 340 344 347 348 338 335 338 338 340 336 333 324 321 316 311 304 281 285 283 287 283 283 287 297 267 265 272 275 218
14 309 262 215 169 256 232 203 228 182 216 175 169 156 152 161 298 330 342 338 342 345 348 339 336 334 337 337 338 333 329 327 318 317 313 309 300 283 286 282 282 278 285 290 282 264 268 262 262
79 50 320 339 331 238 182 284 246 212 188 171 159 156 158 169 315 334 339 342 349 346 340 336 335 334 335 333 334 332 327 324 316 313 308 308 303 287 277 283 290 282 283 294 284 290 268 271 316
192 165 169 263 240 276 324 254 240 147 127 137 143 150 156 186 303 333 348 352 343 340 335 335 335 331 333 332 332 332 330 319 319 312 307 302 301 297 277 276 288 287 279 284 292 284 265 264 267
178 182 162 287 105 5 240 278 340 131 139 142 147 155 165 193 329 349 347 342 341 333 334 333 330 331 332 330 331 332 330 320 320 307 317 307 300 295 287 278 281 284 279 278 289 286 268 261 270
218 171 85 72 287 273 266 260 232 190 197 181 168 162 177 314 334 336 335 340 339 330 330 330 331 331 331 331 330 330 329 324 313 313 315 298 297 298 295 276 269 276 283 277 284 294 279 266 261
143 227 229 188 174 235 281 255 234 192 189 183 181 170 195 254 305 334 340 343 333 326 331 331 332 331 332 330 329 328 329 324 317 311 314 309 296 285 280 276 268 267 276 268 273 282 278 271 261
179 202 189 209 222 240 256 272 174 185 182 166 168 180 200 248 324 339 341 339 330 330 332 331 332 331 331 330 327 328 328 327 319 313 313 312 304 296 284 280 269 262 270 272 268 277 274 270 258